| time (UTC) | temp C | wind direction | speed KPH | gust KPH | rain 1hr cm | rain 24hr cm | rain mn cm | humidity % | barometer mb |
| 20260505153155 | 16 | 202 | 1.6 | 1.6 | 0.00 | 0.00 | 0.00 | 76 | 1025.0 |
| 20260505152155 | 16 | 193 | 1.6 | 3.2 | 0.00 | 0.00 | 0.00 | 75 | 1026.0 |
| 20260505151156 | 16 | 202 | 0.0 | 1.6 | 0.00 | 0.00 | 0.00 | 75 | 1026.0 |
| 20260505150154 | 16 | 207 | 1.6 | 4.8 | 0.00 | 0.00 | 0.00 | 75 | 1026.0 |
| 20260505140155 | 16 | 190 | 1.6 | 8.0 | 0.00 | 0.00 | 0.00 | 68 | 1026.0 |
| 20260505130154 | 16 | 140 | 3.2 | 4.8 | 0.00 | 0.00 | 0.00 | 65 | 1026.0 |
| 20260505124154 | 16 | 177 | 3.2 | 4.8 | 0.00 | 0.00 | 0.00 | 65 | 1025.0 |
| 20260505123154 | 16 | 186 | 1.6 | 3.2 | 0.00 | 0.00 | 0.00 | 64 | 1025.0 |
| 20260505122154 | 16 | 173 | 1.6 | 1.6 | 0.00 | 0.00 | 0.00 | 63 | 1025.0 |
| 20260505121154 | 16 | 223 | 3.2 | 4.8 | 0.00 | 0.00 | 0.00 | 61 | 1025.0 |
| 20260505120155 | 16 | 159 | 4.8 | 8.0 | 0.00 | 0.00 | 0.00 | 60 | 1025.0 |
| 20260505115155 | 16 | 207 | 8.0 | 11.3 | 0.00 | 0.00 | 0.00 | 59 | 1025.0 |
| 20260505114155 | 16 | 164 | 8.0 | 9.7 | 0.00 | 0.00 | 0.00 | 58 | 1025.0 |
| 20260505113154 | 16 | 225 | 4.8 | 9.7 | 0.00 | 0.00 | 0.00 | 58 | 1025.0 |
| 20260505112154 | 16 | 227 | 3.2 | 8.0 | 0.00 | 0.00 | 0.00 | 58 | 1025.0 |
| 20260505111154 | 16 | 165 | 3.2 | 8.0 | 0.00 | 0.00 | 0.00 | 57 | 1025.0 |
| 20260505110154 | 16 | 222 | 8.0 | 9.7 | 0.00 | 0.00 | 0.00 | 57 | 1025.0 |
| 20260505102154 | 16 | 200 | 8.0 | 9.7 | 0.00 | 0.00 | 0.00 | 55 | 1025.0 |
| 20260505101154 | 17 | 129 | 8.0 | 9.7 | 0.00 | 0.00 | 0.00 | 53 | 1024.0 |
| 20260505100154 | 17 | 135 | 4.8 | 8.0 | 0.00 | 0.00 | 0.00 | 52 | 1024.0 |
| 20260505095155 | 17 | 215 | 3.2 | 8.0 | 0.00 | 0.00 | 0.00 | 50 | 1024.0 |
| 20260505094155 | 17 | 208 | 8.0 | 9.7 | 0.00 | 0.00 | 0.00 | 47 | 1023.0 |
| 20260505093155 | 17 | 134 | 4.8 | 12.9 | 0.00 | 0.00 | 0.00 | 44 | 1023.0 |
| 20260505092154 | 17 | 182 | 4.8 | 11.3 | 0.00 | 0.00 | 0.00 | 43 | 1023.0 |
| 20260505091154 | 17 | 137 | 8.0 | 9.7 | 0.00 | 0.00 | 0.00 | 44 | 1023.0 |
| 20260505090154 | 18 | 226 | 9.7 | 11.3 | 0.00 | 0.00 | 0.00 | 43 | 1023.0 |
| 20260505085154 | 18 | 169 | 9.7 | 12.9 | 0.00 | 0.00 | 0.00 | 44 | 1023.0 |
| 20260505084154 | 18 | 246 | 8.0 | 11.3 | 0.00 | 0.00 | 0.00 | 46 | 1023.0 |
| 20260505083154 | 18 | 259 | 9.7 | 14.5 | 0.00 | 0.00 | 0.00 | 47 | 1023.0 |
| 20260505082156 | 19 | 111 | 4.8 | 8.0 | 0.00 | 0.00 | 0.00 | 47 | 1023.0 |
| 20260505081156 | 19 | 191 | 8.0 | 16.1 | 0.00 | 0.00 | 0.00 | 46 | 1023.0 |
| 20260505080155 | 20 | 170 | 9.7 | 12.9 | 0.00 | 0.00 | 0.00 | 46 | 1023.0 |
| 20260505075155 | 20 | 205 | 9.7 | 12.9 | 0.00 | 0.00 | 0.00 | 44 | 1023.0 |
| 20260505074155 | 20 | 207 | 9.7 | 14.5 | 0.00 | 0.00 | 0.00 | 43 | 1023.0 |
| 20260505073155 | 21 | 209 | 8.0 | 9.7 | 0.00 | 0.00 | 0.00 | 41 | 1023.0 |
| 20260505072155 | 21 | 182 | 9.7 | 12.9 | 0.00 | 0.00 | 0.00 | 40 | 1022.0 |
| 20260505071155 | 21 | 125 | 4.8 | 9.7 | 0.00 | 0.00 | 0.00 | 38 | 1022.0 |
| 20260505070154 | 22 | 270 | 9.7 | 14.5 | 0.00 | 0.00 | 0.00 | 35 | 1022.0 |
| 20260505065154 | 22 | 210 | 4.8 | 9.7 | 0.00 | 0.00 | 0.00 | 31 | 1022.0 |
| 20260505064154 | 22 | 112 | 8.0 | 9.7 | 0.00 | 0.00 | 0.00 | 24 | 1022.0 |
| 20260505063154 | 23 | 164 | 4.8 | 4.8 | 0.00 | 0.00 | 0.00 | 22 | 1022.0 |
| 20260505062154 | 23 | 192 | 4.8 | 11.3 | 0.00 | 0.00 | 0.00 | 19 | 1022.0 |
| 20260505061154 | 23 | 22 | 9.7 | 9.7 | 0.00 | 0.00 | 0.00 | 11 | 1021.0 |
| 20260505060156 | 24 | 167 | 4.8 | 8.0 | 0.00 | 0.00 | 0.00 | 11 | 1021.0 |
| 20260505055155 | 25 | 172 | 4.8 | 9.7 | 0.00 | 0.00 | 0.00 | 9 | 1022.0 |
| 20260505054155 | 26 | 195 | 8.0 | 8.0 | 0.00 | 0.00 | 0.00 | 9 | 1021.0 |
| 20260505053155 | 27 | 194 | 4.8 | 9.7 | 0.00 | 0.00 | 0.00 | 9 | 1021.0 |
| 20260505052155 | 28 | 209 | 1.6 | 3.2 | 0.00 | 0.00 | 0.00 | 10 | 1022.0 |
| 20260505051155 | 28 | 239 | 0.0 | 1.6 | 0.00 | 0.00 | 0.00 | 12 | 1022.0 |
| 20260505050155 | 27 | 192 | 3.2 | 4.8 | 0.00 | 0.00 | 0.00 | 11 | 1022.0 |
| 20260505041154 | 27 | 185 | 4.8 | 9.7 | 0.00 | 0.00 | 0.00 | 14 | 1022.0 |
| 20260505040154 | 27 | 229 | 4.8 | 4.8 | 0.00 | 0.00 | 0.00 | 14 | 1022.0 |
| 20260505035154 | 28 | 247 | 4.8 | 4.8 | 0.00 | 0.00 | 0.00 | 12 | 1021.0 |
| 20260505034154 | 29 | 258 | 1.6 | 3.2 | 0.00 | 0.00 | 0.00 | 8 | 1022.0 |
| 20260505033155 | 28 | 252 | 3.2 | 4.8 | 0.00 | 0.00 | 0.00 | 7 | 1022.0 |
| 20260505032155 | 27 | 262 | 3.2 | 3.2 | 0.00 | 0.00 | 0.00 | 8 | 1021.0 |
| 20260505031155 | 28 | 1 | 3.2 | 8.0 | 0.00 | 0.00 | 0.00 | 7 | 1021.0 |
| 20260505030155 | 27 | 301 | 4.8 | 12.9 | 0.00 | 0.00 | 0.00 | 8 | 1021.0 |
| 20260505025155 | 27 | 250 | 1.6 | 3.2 | 0.00 | 0.00 | 0.00 | 9 | 1022.0 |
| 20260505024155 | 27 | 252 | 4.8 | 4.8 | 0.00 | 0.00 | 0.00 | 10 | 1022.0 |
| 20260505023155 | 27 | 154 | 4.8 | 9.7 | 0.00 | 0.00 | 0.00 | 11 | 1022.0 |
| 20260505022154 | 27 | 252 | 1.6 | 3.2 | 0.00 | 0.00 | 0.00 | 12 | 1022.0 |
| 20260505021154 | 26 | 316 | 3.2 | 9.7 | 0.00 | 0.00 | 0.00 | 12 | 1022.0 |
| 20260505020154 | 25 | 15 | 1.6 | 4.8 | 0.00 | 0.00 | 0.00 | 13 | 1022.0 |
| 20260505015154 | 25 | 32 | 3.2 | 8.0 | 0.00 | 0.00 | 0.00 | 13 | 1021.0 |
| 20260505014154 | 24 | 38 | 4.8 | 9.7 | 0.00 | 0.00 | 0.00 | 13 | 1021.0 |
| 20260505013154 | 24 | 298 | 8.0 | 9.7 | 0.00 | 0.00 | 0.00 | 14 | 1021.0 |
| 20260505012155 | 24 | 309 | 3.2 | 4.8 | 0.00 | 0.00 | 0.00 | 15 | 1021.0 |
| 20260505011155 | 23 | 32 | 3.2 | 3.2 | 0.00 | 0.00 | 0.00 | 17 | 1021.0 |
| 20260505010154 | 23 | 45 | 3.2 | 3.2 | 0.00 | 0.00 | 0.00 | 17 | 1021.0 |
| 20260505005154 | 23 | 38 | 3.2 | 9.7 | 0.00 | 0.00 | 0.00 | 18 | 1021.0 |
| 20260505004154 | 23 | 147 | 4.8 | 4.8 | 0.00 | 0.00 | 0.00 | 19 | 1021.0 |
| 20260505003153 | 21 | 68 | 4.8 | 8.0 | 0.00 | 0.00 | 0.00 | 26 | 1021.0 |
| 20260505002154 | 21 | 68 | 4.8 | 8.0 | 0.00 | 0.00 | 0.00 | 26 | 1021.0 |
| 20260505001154 | 21 | 68 | 4.8 | 8.0 | 0.00 | 0.00 | 0.00 | 26 | 1021.0 |
| 20260505000154 | 21 | 68 | 4.8 | 8.0 | 0.00 | 0.00 | 0.00 | 26 | 1021.0 |
| 20260504235153 | 21 | 68 | 4.8 | 8.0 | 0.00 | 0.00 | 0.00 | 26 | 1021.0 |
| 20260504234154 | 21 | 68 | 4.8 | 8.0 | 0.00 | 0.00 | 0.00 | 26 | 1021.0 |
| 20260504233153 | 21 | 68 | 4.8 | 8.0 | 0.00 | 0.00 | 0.00 | 26 | 1021.0 |
| 20260504232153 | 20 | 64 | 3.2 | 3.2 | 0.00 | 0.00 | 0.00 | 27 | 1021.0 |
| 20260504231153 | 20 | 38 | 4.8 | 4.8 | 0.00 | 0.00 | 0.00 | 26 | 1022.0 |
| 20260504230535 | 20 | 253 | 3.2 | 4.8 | 0.00 | 0.00 | 0.00 | 28 | 1022.0 |
| 20260504225534 | 19 | 152 | 1.6 | 1.6 | 0.00 | 0.00 | 0.00 | 30 | 1021.0 |
| 20260504224534 | 18 | 33 | 1.6 | 3.2 | 0.00 | 0.00 | 0.00 | 31 | 1021.0 |
| 20260504223534 | 17 | 34 | 4.8 | 9.7 | 0.00 | 0.00 | 0.00 | 32 | 1021.0 |
| 20260504222534 | 17 | 32 | 4.8 | 8.0 | 0.00 | 0.00 | 0.00 | 34 | 1021.0 |
| 20260504221534 | 16 | 52 | 4.8 | 9.7 | 0.00 | 0.00 | 0.00 | 36 | 1021.0 |
| 20260504220534 | 15 | 3 | 3.2 | 8.0 | 0.00 | 0.00 | 0.00 | 39 | 1021.0 |
| 20260504215534 | 15 | 40 | 3.2 | 8.0 | 0.00 | 0.00 | 0.00 | 40 | 1021.0 |
| 20260504214534 | 15 | 26 | 1.6 | 4.8 | 0.00 | 0.00 | 0.00 | 41 | 1021.0 |
| 20260504213534 | 14 | 34 | 1.6 | 8.0 | 0.00 | 0.00 | 0.00 | 41 | 1021.0 |
| 20260504212536 | 14 | 45 | 4.8 | 9.7 | 0.00 | 0.00 | 0.00 | 41 | 1020.0 |
| 20260504211536 | 14 | 19 | 3.2 | 4.8 | 0.00 | 0.00 | 0.00 | 42 | 1020.0 |
| 20260504210536 | 14 | 85 | 3.2 | 4.8 | 0.00 | 0.00 | 0.00 | 42 | 1021.0 |
| 20260504205535 | 14 | 337 | 8.0 | 9.7 | 0.00 | 0.00 | 0.00 | 42 | 1021.0 |
| 20260504204535 | 13 | 80 | 0.0 | 3.2 | 0.00 | 0.00 | 0.00 | 42 | 1021.0 |
| 20260504203535 | 13 | 41 | 4.8 | 8.0 | 0.00 | 0.00 | 0.00 | 42 | 1020.0 |
| 20260504202535 | 13 | 7 | 3.2 | 9.7 | 0.00 | 0.00 | 0.00 | 43 | 1019.0 |
| 20260504201535 | 13 | 14 | 4.8 | 9.7 | 0.00 | 0.10 | 0.00 | 43 | 1019.0 |
| 20260504200535 | 13 | 309 | 3.2 | 4.8 | 0.00 | 0.20 | 0.00 | 44 | 1018.0 |
| 20260504195534 | 13 | 57 | 3.2 | 4.8 | 0.00 | 0.20 | 0.00 | 43 | 1019.0 |
| 20260504194534 | 13 | 61 | 8.0 | 14.5 | 0.00 | 0.20 | 0.00 | 43 | 1019.0 |
| 20260504193534 | 13 | 151 | 4.8 | 8.0 | 0.00 | 0.20 | 0.00 | 44 | 1018.0 |
| 20260504192534 | 13 | 288 | 1.6 | 1.6 | 0.00 | 0.20 | 0.00 | 45 | 1018.0 |
| 20260504191534 | 13 | 55 | 3.2 | 8.0 | 0.00 | 0.30 | 0.00 | 45 | 1018.0 |
| 20260504190534 | 13 | 35 | 4.8 | 8.0 | 0.00 | 0.30 | 0.00 | 46 | 1017.0 |
| 20260504185534 | 13 | 45 | 1.6 | 3.2 | 0.00 | 0.30 | 0.00 | 46 | 1017.0 |
| 20260504184534 | 13 | 30 | 3.2 | 9.7 | 0.00 | 0.30 | 0.00 | 46 | 1017.0 |
| 20260504183534 | 13 | 47 | 4.8 | 9.7 | 0.00 | 0.30 | 0.00 | 46 | 1017.0 |
| 20260504182534 | 13 | 42 | 3.2 | 4.8 | 0.00 | 0.30 | 0.00 | 46 | 1017.0 |
| 20260504181534 | 13 | 56 | 4.8 | 11.3 | 0.00 | 0.30 | 0.00 | 47 | 1017.0 |
| 20260504180536 | 13 | 50 | 3.2 | 8.0 | 0.00 | 0.30 | 0.00 | 47 | 1016.0 |
| 20260504175535 | 13 | 32 | 3.2 | 11.3 | 0.00 | 0.30 | 0.00 | 46 | 1015.0 |
| 20260504174535 | 13 | 18 | 3.2 | 4.8 | 0.00 | 0.30 | 0.00 | 46 | 1015.0 |
| 20260504173535 | 13 | 14 | 8.0 | 12.9 | 0.00 | 0.30 | 0.00 | 46 | 1015.0 |
| 20260504172535 | 13 | 343 | 4.8 | 9.7 | 0.00 | 0.30 | 0.00 | 46 | 1015.0 |
| 20260504171535 | 13 | 63 | 3.2 | 3.2 | 0.00 | 0.30 | 0.00 | 46 | 1015.0 |
| 20260504170535 | 13 | 1 | 4.8 | 8.0 | 0.00 | 0.30 | 0.00 | 46 | 1015.0 |